| time (UTC) | temp F | wind direction | speed knots | gust knots | rain 1hr in | rain 24hr in | rain mn in | humidity % | barometer mb |
| 20260906110950 | 64 | 237 | 0.0 | 0.0 | 0.00 | 0.00 | 0.00 | 99 | 1005.0 |
| 20260906110445 | 64 | 237 | 0.0 | 0.0 | 0.00 | 0.00 | 0.00 | 99 | 1005.1 |
| 20260906105944 | 64 | 237 | 0.0 | 0.0 | 0.00 | 0.00 | 0.00 | 99 | 1004.8 |
| 20260906105439 | 63 | 237 | 0.0 | 0.0 | 0.00 | 0.00 | 0.00 | 99 | 1004.8 |
| 20260906104936 | 63 | 237 | 0.0 | 0.0 | 0.00 | 0.00 | 0.00 | 99 | 1004.6 |
| 20260906104434 | 63 | 237 | 0.0 | 0.0 | 0.00 | 0.00 | 0.00 | 99 | 1004.6 |
| 20260906103933 | 63 | 237 | 0.0 | 0.0 | 0.00 | 0.00 | 0.00 | 99 | 1004.7 |
| 20260906103432 | 63 | 237 | 0.0 | 0.0 | 0.00 | 0.00 | 0.00 | 99 | 1004.6 |
| 20260906102927 | 63 | 237 | 0.0 | 0.0 | 0.00 | 0.00 | 0.00 | 99 | 1004.7 |
| 20260906102427 | 63 | 237 | 0.0 | 0.0 | 0.00 | 0.00 | 0.00 | 99 | 1004.7 |
| 20260906101921 | 63 | 237 | 0.0 | 0.0 | 0.00 | 0.00 | 0.00 | 99 | 1004.6 |
| 20260906101417 | 62 | 237 | 0.0 | 0.0 | 0.00 | 0.00 | 0.00 | 99 | 1004.4 |
| 20260906100912 | 62 | 237 | 0.0 | 0.0 | 0.00 | 0.00 | 0.00 | 99 | 1004.4 |
| 20260906100412 | 62 | 237 | 0.0 | 0.0 | 0.00 | 0.00 | 0.00 | 99 | 1004.4 |
| 20260906095907 | 62 | 237 | 0.0 | 0.0 | 0.00 | 0.00 | 0.00 | 99 | 1004.6 |
| 20260906095402 | 61 | 237 | 0.0 | 0.0 | 0.00 | 0.00 | 0.00 | 99 | 1004.6 |
| 20260906094856 | 61 | 237 | 0.0 | 0.0 | 0.00 | 0.00 | 0.00 | 99 | 1004.3 |
| 20260906094351 | 60 | 237 | 0.0 | 0.0 | 0.00 | 0.00 | 0.00 | 99 | 1004.3 |
| 20260906093847 | 60 | 237 | 0.0 | 0.0 | 0.00 | 0.00 | 0.00 | 99 | 1004.6 |
| 20260906093342 | 60 | 237 | 0.0 | 0.0 | 0.00 | 0.00 | 0.00 | 99 | 1004.1 |
| 20260906092831 | 60 | 237 | 0.0 | 0.0 | 0.00 | 0.00 | 0.00 | 99 | 1004.1 |
| 20260906092325 | 60 | 237 | 0.0 | 0.0 | 0.00 | 0.00 | 0.00 | 99 | 1004.0 |
| 20260906091821 | 61 | 237 | 0.0 | 0.0 | 0.00 | 0.00 | 0.00 | 99 | 1004.1 |
| 20260906091318 | 61 | 237 | 0.0 | 0.0 | 0.00 | 0.00 | 0.00 | 99 | 1003.7 |
| 20260906090814 | 61 | 237 | 0.0 | 0.0 | 0.00 | 0.00 | 0.00 | 99 | 1004.0 |
| 20260906090312 | 61 | 237 | 0.0 | 0.0 | 0.00 | 0.00 | 0.00 | 99 | 1004.0 |
| 20260906085807 | 61 | 237 | 0.0 | 0.0 | 0.00 | 0.00 | 0.00 | 99 | 1003.8 |
| 20260906085307 | 61 | 237 | 0.0 | 0.0 | 0.00 | 0.00 | 0.00 | 99 | 1003.9 |
| 20260906084801 | 61 | 237 | 0.0 | 0.0 | 0.00 | 0.00 | 0.00 | 99 | 1003.9 |
| 20260906084301 | 61 | 237 | 0.0 | 0.0 | 0.00 | 0.00 | 0.00 | 99 | 1003.8 |
| 20260906083755 | 61 | 237 | 0.0 | 0.0 | 0.00 | 0.00 | 0.00 | 99 | 1003.9 |
| 20260906083250 | 61 | 237 | 0.0 | 0.0 | 0.00 | 0.00 | 0.00 | 99 | 1003.8 |
| 20260906082739 | 61 | 237 | 0.0 | 0.0 | 0.00 | 0.00 | 0.00 | 99 | 1003.8 |
| 20260906082235 | 61 | 237 | 0.0 | 0.0 | 0.00 | 0.00 | 0.00 | 99 | 1004.0 |
| 20260906081730 | 61 | 237 | 0.0 | 0.0 | 0.00 | 0.00 | 0.00 | 99 | 1003.9 |
| 20260906081224 | 62 | 237 | 0.0 | 0.0 | 0.00 | 0.00 | 0.00 | 99 | 1004.0 |
| 20260906080721 | 61 | 237 | 0.0 | 0.0 | 0.00 | 0.00 | 0.00 | 99 | 1004.1 |
| 20260906080218 | 62 | 237 | 0.0 | 0.0 | 0.00 | 0.00 | 0.00 | 99 | 1003.8 |
| 20260906075712 | 62 | 237 | 0.0 | 0.0 | 0.00 | 0.00 | 0.00 | 99 | 1003.8 |
| 20260906075207 | 62 | 237 | 0.0 | 0.0 | 0.00 | 0.00 | 0.00 | 99 | 1003.7 |
| 20260906074702 | 62 | 239 | 0.0 | 0.0 | 0.00 | 0.00 | 0.00 | 99 | 1003.5 |
| 20260906074201 | 62 | 257 | 0.0 | 0.0 | 0.00 | 0.00 | 0.00 | 99 | 1003.6 |
| 20260906073656 | 62 | 247 | 0.0 | 0.9 | 0.00 | 0.00 | 0.00 | 99 | 1003.7 |
| 20260906073151 | 62 | 274 | 0.0 | 0.0 | 0.00 | 0.00 | 0.00 | 99 | 1003.6 |
| 20260906072646 | 62 | 275 | 0.0 | 0.0 | 0.00 | 0.00 | 0.00 | 99 | 1003.8 |
| 20260906072136 | 62 | 275 | 0.0 | 0.9 | 0.00 | 0.00 | 0.00 | 99 | 1003.7 |
| 20260906071632 | 62 | 238 | 0.0 | 0.0 | 0.00 | 0.00 | 0.00 | 99 | 1003.8 |
| 20260906071126 | 62 | 240 | 0.0 | 0.0 | 0.00 | 0.00 | 0.00 | 99 | 1003.7 |
| 20260906070623 | 62 | 226 | 0.0 | 0.0 | 0.00 | 0.00 | 0.00 | 99 | 1003.8 |
| 20260906070119 | 62 | 226 | 0.0 | 0.0 | 0.00 | 0.00 | 0.00 | 99 | 1003.9 |
| 20260906065618 | 62 | 226 | 0.0 | 0.0 | 0.00 | 0.00 | 0.00 | 99 | 1003.8 |
| 20260906065113 | 62 | 226 | 0.0 | 0.0 | 0.00 | 0.00 | 0.00 | 99 | 1004.0 |
| 20260906064603 | 62 | 226 | 0.0 | 0.0 | 0.00 | 0.00 | 0.00 | 99 | 1004.3 |
| 20260906064052 | 63 | 226 | 0.0 | 0.0 | 0.00 | 0.00 | 0.00 | 99 | 1004.4 |
| 20260906063547 | 62 | 226 | 0.0 | 0.0 | 0.00 | 0.00 | 0.00 | 99 | 1004.4 |
| 20260906063043 | 62 | 226 | 0.0 | 0.0 | 0.00 | 0.00 | 0.00 | 99 | 1004.4 |
| 20260906062539 | 62 | 226 | 0.0 | 0.0 | 0.00 | 0.00 | 0.00 | 99 | 1004.4 |
| 20260906062032 | 62 | 231 | 0.0 | 0.0 | 0.00 | 0.00 | 0.00 | 99 | 1004.3 |
| 20260906061529 | 63 | 231 | 0.0 | 0.0 | 0.00 | 0.00 | 0.00 | 99 | 1004.4 |
| 20260906061028 | 63 | 231 | 0.0 | 0.0 | 0.00 | 0.00 | 0.00 | 99 | 1004.2 |
| 20260906060525 | 63 | 231 | 0.0 | 0.0 | 0.00 | 0.00 | 0.00 | 99 | 1004.4 |
| 20260906060021 | 63 | 231 | 0.0 | 0.0 | 0.00 | 0.00 | 0.00 | 99 | 1004.4 |
| 20260906055518 | 63 | 238 | 0.0 | 0.0 | 0.00 | 0.00 | 0.00 | 99 | 1004.6 |
| 20260906055013 | 63 | 238 | 0.0 | 0.0 | 0.00 | 0.00 | 0.00 | 99 | 1004.4 |
| 20260906054513 | 63 | 239 | 0.0 | 0.0 | 0.00 | 0.00 | 0.00 | 99 | 1004.4 |
| 20260906054008 | 63 | 249 | 0.9 | 1.7 | 0.00 | 0.00 | 0.00 | 99 | 1004.6 |
| 20260906053504 | 63 | 235 | 0.0 | 0.0 | 0.00 | 0.00 | 0.00 | 99 | 1004.3 |
| 20260906053000 | 63 | 240 | 0.0 | 1.7 | 0.00 | 0.00 | 0.00 | 99 | 1004.2 |
| 20260906052455 | 63 | 247 | 1.7 | 1.7 | 0.00 | 0.00 | 0.00 | 99 | 1004.3 |
| 20260906051952 | 63 | 251 | 1.7 | 1.7 | 0.00 | 0.00 | 0.00 | 99 | 1004.2 |
| 20260906051447 | 63 | 239 | 0.0 | 0.0 | 0.00 | 0.00 | 0.00 | 99 | 1004.3 |
| 20260906050943 | 63 | 239 | 0.0 | 0.0 | 0.00 | 0.00 | 0.00 | 99 | 1004.2 |
| 20260906050442 | 63 | 249 | 0.0 | 0.0 | 0.00 | 0.00 | 0.00 | 99 | 1004.3 |
| 20260906045941 | 63 | 249 | 0.0 | 0.9 | 0.00 | 0.00 | 0.00 | 99 | 1004.3 |
| 20260906045441 | 63 | 245 | 0.0 | 0.0 | 0.00 | 0.00 | 0.00 | 99 | 1004.2 |
| 20260906044937 | 63 | 245 | 0.0 | 0.0 | 0.00 | 0.00 | 0.00 | 99 | 1004.2 |
| 20260906044432 | 63 | 245 | 0.0 | 0.0 | 0.00 | 0.00 | 0.00 | 99 | 1004.2 |
| 20260906043927 | 63 | 245 | 0.0 | 0.0 | 0.00 | 0.00 | 0.00 | 99 | 1004.2 |
| 20260906043423 | 63 | 245 | 0.0 | 0.0 | 0.00 | 0.00 | 0.00 | 99 | 1004.4 |
| 20260906042919 | 64 | 245 | 0.0 | 0.0 | 0.00 | 0.00 | 0.00 | 99 | 1004.6 |
| 20260906042418 | 63 | 245 | 0.0 | 0.0 | 0.00 | 0.00 | 0.00 | 99 | 1004.4 |
| 20260906041913 | 64 | 245 | 0.0 | 0.0 | 0.00 | 0.00 | 0.00 | 99 | 1004.3 |
| 20260906041409 | 64 | 245 | 0.0 | 0.0 | 0.00 | 0.00 | 0.00 | 99 | 1004.4 |
| 20260906040908 | 64 | 246 | 1.7 | 1.7 | 0.00 | 0.00 | 0.00 | 99 | 1004.6 |
| 20260906040404 | 64 | 246 | 0.9 | 1.7 | 0.00 | 0.00 | 0.00 | 99 | 1004.7 |
| 20260906035859 | 64 | 233 | 0.0 | 0.0 | 0.00 | 0.02 | 0.02 | 99 | 1004.8 |
| 20260906035355 | 64 | 250 | 0.9 | 1.7 | 0.00 | 0.02 | 0.02 | 99 | 1004.9 |
| 20260906034850 | 64 | 251 | 0.9 | 1.7 | 0.00 | 0.02 | 0.02 | 99 | 1005.0 |
| 20260906034344 | 64 | 241 | 1.7 | 1.7 | 0.00 | 0.02 | 0.02 | 99 | 1004.9 |
| 20260906033840 | 64 | 241 | 1.7 | 1.7 | 0.00 | 0.02 | 0.02 | 99 | 1005.1 |
| 20260906033339 | 64 | 250 | 0.0 | 1.7 | 0.00 | 0.02 | 0.02 | 99 | 1005.3 |
| 20260906032836 | 64 | 249 | 0.9 | 0.9 | 0.00 | 0.02 | 0.02 | 99 | 1005.1 |
| 20260906032331 | 64 | 249 | 1.7 | 1.7 | 0.00 | 0.02 | 0.02 | 99 | 1005.1 |
| 20260906031827 | 64 | 249 | 0.0 | 0.9 | 0.00 | 0.02 | 0.02 | 99 | 1005.3 |
| 20260906031322 | 64 | 249 | 0.9 | 1.7 | 0.00 | 0.02 | 0.02 | 99 | 1005.3 |
| 20260906030821 | 64 | 249 | 0.0 | 0.9 | 0.00 | 0.02 | 0.02 | 99 | 1005.4 |
| 20260906030316 | 64 | 249 | 0.0 | 0.0 | 0.00 | 0.02 | 0.02 | 99 | 1005.2 |
| 20260906025811 | 64 | 249 | 0.0 | 0.9 | 0.00 | 0.02 | 0.02 | 99 | 1005.1 |
| 20260906025306 | 64 | 249 | 0.0 | 0.0 | 0.00 | 0.02 | 0.02 | 99 | 1005.1 |
| 20260906024804 | 64 | 249 | 0.0 | 0.0 | 0.00 | 0.02 | 0.02 | 99 | 1005.0 |
| 20260906024304 | 64 | 249 | 0.0 | 0.0 | 0.00 | 0.02 | 0.02 | 99 | 1004.8 |
| 20260906023759 | 64 | 249 | 0.0 | 0.0 | 0.00 | 0.02 | 0.02 | 99 | 1005.1 |
| 20260906023254 | 65 | 249 | 0.0 | 0.0 | 0.00 | 0.02 | 0.02 | 99 | 1005.0 |
| 20260906022750 | 65 | 249 | 0.0 | 0.0 | 0.00 | 0.02 | 0.02 | 99 | 1004.8 |
| 20260906022245 | 65 | 249 | 0.0 | 0.0 | 0.00 | 0.02 | 0.02 | 99 | 1004.8 |
| 20260906021741 | 65 | 249 | 0.0 | 0.0 | 0.00 | 0.02 | 0.02 | 99 | 1005.0 |
| 20260906021240 | 65 | 249 | 0.0 | 0.0 | 0.00 | 0.02 | 0.02 | 99 | 1005.0 |
| 20260906020734 | 65 | 249 | 0.0 | 0.0 | 0.00 | 0.02 | 0.02 | 99 | 1005.0 |
| 20260906020229 | 66 | 249 | 0.0 | 0.0 | 0.00 | 0.02 | 0.02 | 99 | 1004.8 |
| 20260906015724 | 66 | 249 | 0.9 | 1.7 | 0.00 | 0.02 | 0.02 | 99 | 1004.8 |
| 20260906015222 | 66 | 252 | 0.9 | 1.7 | 0.00 | 0.02 | 0.02 | 99 | 1004.9 |
| 20260906014717 | 66 | 243 | 0.0 | 0.0 | 0.00 | 0.02 | 0.02 | 99 | 1004.7 |
| 20260906014213 | 66 | 243 | 0.0 | 0.0 | 0.00 | 0.02 | 0.02 | 99 | 1004.6 |
| 20260906013709 | 66 | 243 | 0.0 | 0.0 | 0.00 | 0.02 | 0.02 | 99 | 1004.6 |
| 20260906013209 | 66 | 243 | 0.0 | 0.0 | 0.00 | 0.02 | 0.02 | 99 | 1004.6 |
| 20260906012704 | 66 | 243 | 0.0 | 0.0 | 0.00 | 0.02 | 0.02 | 99 | 1004.4 |
| 20260906012204 | 66 | 235 | 0.0 | 0.0 | 0.00 | 0.02 | 0.02 | 99 | 1004.4 |
| 20260906011659 | 67 | 235 | 0.0 | 0.0 | 0.00 | 0.02 | 0.02 | 98 | 1004.3 |
| 20260906011154 | 67 | 235 | 0.0 | 0.0 | 0.00 | 0.02 | 0.02 | 98 | 1004.1 |
| 20260906010649 | 67 | 235 | 0.0 | 0.0 | 0.00 | 0.02 | 0.02 | 98 | 1004.2 |
| 20260906010146 | 67 | 235 | 0.0 | 0.0 | 0.00 | 0.02 | 0.02 | 98 | 1004.0 |
| 20260906005645 | 68 | 235 | 0.0 | 0.0 | 0.00 | 0.02 | 0.02 | 97 | 1004.0 |
| 20260906005144 | 68 | 235 | 0.0 | 0.0 | 0.00 | 0.02 | 0.02 | 97 | 1004.2 |
| 20260906004643 | 68 | 235 | 0.0 | 0.0 | 0.00 | 0.02 | 0.02 | 97 | 1003.9 |
| 20260906004139 | 68 | 235 | 0.0 | 0.0 | 0.00 | 0.02 | 0.02 | 97 | 1004.0 |
| 20260906003634 | 68 | 235 | 0.0 | 0.0 | 0.00 | 0.02 | 0.02 | 97 | 1004.0 |
| 20260906003130 | 68 | 235 | 0.0 | 0.0 | 0.00 | 0.02 | 0.02 | 97 | 1004.0 |
| 20260906002624 | 68 | 235 | 0.0 | 0.0 | 0.00 | 0.02 | 0.02 | 97 | 1003.8 |
| 20260906002119 | 68 | 235 | 0.0 | 0.0 | 0.00 | 0.02 | 0.02 | 97 | 1003.9 |
| 20260906001614 | 68 | 235 | 0.0 | 0.0 | 0.00 | 0.02 | 0.02 | 96 | 1003.8 |
| 20260906001109 | 69 | 235 | 0.0 | 0.0 | 0.00 | 0.02 | 0.02 | 96 | 1003.4 |
| 20260906000605 | 69 | 240 | 0.0 | 0.0 | 0.00 | 0.02 | 0.02 | 95 | 1003.5 |
| 20260906000100 | 69 | 240 | 0.9 | 0.9 | 0.00 | 0.02 | 0.02 | 95 | 1003.6 |
| 20260905235559 | 69 | 238 | 0.0 | 0.0 | 0.00 | 0.02 | 0.02 | 94 | 1003.7 |
| 20260905235054 | 70 | 238 | 0.0 | 0.9 | 0.00 | 0.02 | 0.02 | 94 | 1003.7 |
| 20260905234549 | 70 | 269 | 0.0 | 0.0 | 0.00 | 0.02 | 0.02 | 93 | 1003.7 |
| 20260905234044 | 70 | 273 | 0.0 | 1.7 | 0.00 | 0.02 | 0.02 | 93 | 1003.6 |
| 20260905233538 | 71 | 203 | 0.0 | 0.0 | 0.00 | 0.02 | 0.02 | 93 | 1003.6 |
| 20260905233039 | 71 | 203 | 0.0 | 0.0 | 0.00 | 0.02 | 0.02 | 92 | 1003.8 |
| 20260905232534 | 72 | 251 | 0.0 | 0.0 | 0.00 | 0.02 | 0.02 | 92 | 1003.7 |
| 20260905232029 | 72 | 251 | 0.9 | 0.9 | 0.00 | 0.02 | 0.02 | 91 | 1003.8 |
| 20260905231524 | 73 | 254 | 0.0 | 0.0 | 0.00 | 0.02 | 0.02 | 91 | 1003.7 |
| 20260905231021 | 73 | 286 | 0.9 | 2.6 | 0.00 | 0.02 | 0.02 | 90 | 1003.9 |
| 20260905230520 | 73 | 237 | 0.0 | 0.9 | 0.00 | 0.02 | 0.02 | 91 | 1003.7 |
| 20260905230018 | 73 | 237 | 0.0 | 2.6 | 0.00 | 0.02 | 0.02 | 91 | 1003.9 |
| 20260905225513 | 74 | 265 | 0.0 | 0.0 | 0.00 | 0.02 | 0.02 | 90 | 1003.7 |
| 20260905225009 | 74 | 269 | 0.0 | 0.9 | 0.00 | 0.02 | 0.02 | 89 | 1003.7 |
| 20260905224503 | 75 | 262 | 0.9 | 0.9 | 0.00 | 0.02 | 0.02 | 89 | 1003.6 |
| 20260905224003 | 75 | 272 | 0.9 | 0.9 | 0.00 | 0.02 | 0.02 | 89 | 1003.7 |
| 20260905223501 | 76 | 275 | 0.0 | 0.9 | 0.00 | 0.02 | 0.02 | 87 | 1003.5 |
| 20260905222956 | 76 | 276 | 0.0 | 0.9 | 0.00 | 0.02 | 0.02 | 87 | 1003.6 |
| 20260905222456 | 78 | 275 | 1.7 | 1.7 | 0.00 | 0.02 | 0.02 | 84 | 1003.6 |
| 20260905221951 | 79 | 268 | 0.0 | 0.9 | 0.00 | 0.02 | 0.02 | 81 | 1003.4 |
| 20260905221448 | 81 | 259 | 0.0 | 0.0 | 0.00 | 0.02 | 0.02 | 79 | 1003.5 |
| 20260905220943 | 83 | 168 | 0.0 | 0.0 | 0.00 | 0.02 | 0.02 | 74 | 1003.2 |
| 20260905220439 | 82 | 168 | 1.7 | 1.7 | 0.00 | 0.02 | 0.02 | 71 | 1003.3 |
| 20260905215938 | 83 | 339 | 1.7 | 2.6 | 0.00 | 0.02 | 0.02 | 71 | 1003.3 |
| 20260905215434 | 82 | 237 | 0.0 | 2.6 | 0.00 | 0.02 | 0.02 | 73 | 1003.1 |
| 20260905214930 | 83 | 155 | 2.6 | 5.2 | 0.00 | 0.02 | 0.02 | 70 | 1003.4 |
| 20260905214425 | 82 | 142 | 0.9 | 2.6 | 0.00 | 0.02 | 0.02 | 71 | 1003.1 |
| 20260905213920 | 83 | 45 | 0.0 | 3.5 | 0.00 | 0.02 | 0.02 | 69 | 1003.1 |
| 20260905213416 | 82 | 15 | 0.9 | 0.9 | 0.00 | 0.02 | 0.02 | 71 | 1003.0 |
| 20260905212911 | 83 | 42 | 0.9 | 1.7 | 0.00 | 0.02 | 0.02 | 69 | 1003.3 |
| 20260905212406 | 85 | 289 | 0.9 | 1.7 | 0.00 | 0.02 | 0.02 | 69 | 1003.3 |
| 20260905211900 | 86 | 338 | 0.9 | 2.6 | 0.00 | 0.02 | 0.02 | 65 | 1003.0 |
| 20260905211355 | 84 | 296 | 0.0 | 0.9 | 0.00 | 0.02 | 0.02 | 70 | 1003.1 |
| 20260905210851 | 83 | 236 | 0.9 | 1.7 | 0.00 | 0.02 | 0.02 | 69 | 1003.0 |
| 20260905210350 | 83 | 276 | 0.0 | 1.7 | 0.00 | 0.02 | 0.02 | 70 | 1003.2 |
| 20260905205849 | 84 | 290 | 1.7 | 2.6 | 0.00 | 0.02 | 0.02 | 71 | 1002.8 |
| 20260905205344 | 83 | 159 | 0.0 | 0.9 | 0.00 | 0.02 | 0.02 | 74 | 1002.9 |
| 20260905204838 | 83 | 153 | 0.9 | 6.1 | 0.00 | 0.02 | 0.02 | 71 | 1002.9 |
| 20260905204335 | 83 | 239 | 2.6 | 2.6 | 0.00 | 0.02 | 0.02 | 69 | 1003.0 |
| 20260905203833 | 85 | 53 | 0.0 | 1.7 | 0.00 | 0.02 | 0.02 | 71 | 1002.9 |
| 20260905203330 | 83 | 272 | 0.0 | 0.9 | 0.00 | 0.02 | 0.02 | 69 | 1003.0 |
| 20260905202825 | 82 | 231 | 0.0 | 2.6 | 0.00 | 0.02 | 0.02 | 71 | 1003.0 |
| 20260905202319 | 82 | 262 | 0.0 | 8.7 | 0.00 | 0.02 | 0.02 | 71 | 1003.3 |
| 20260905201815 | 82 | 162 | 0.9 | 1.7 | 0.00 | 0.02 | 0.02 | 70 | 1003.0 |
| 20260905201310 | 81 | 302 | 1.7 | 2.6 | 0.00 | 0.02 | 0.02 | 71 | 1003.0 |
| 20260905200804 | 82 | 255 | 1.7 | 3.5 | 0.00 | 0.02 | 0.02 | 73 | 1003.1 |
| 20260905200300 | 83 | 154 | 2.6 | 5.2 | 0.00 | 0.02 | 0.02 | 71 | 1003.1 |
| 20260905195753 | 81 | 148 | 0.9 | 1.7 | 0.00 | 0.02 | 0.02 | 73 | 1003.2 |
| 20260905195248 | 83 | 197 | 0.9 | 7.0 | 0.00 | 0.02 | 0.02 | 71 | 1003.3 |
| 20260905194744 | 83 | 311 | 2.6 | 3.5 | 0.00 | 0.02 | 0.02 | 69 | 1003.1 |
| 20260905194242 | 82 | 228 | 1.7 | 2.6 | 0.00 | 0.02 | 0.02 | 72 | 1003.3 |
| 20260905193737 | 81 | 318 | 0.9 | 2.6 | 0.00 | 0.02 | 0.02 | 71 | 1003.2 |
| 20260905193232 | 81 | 290 | 1.7 | 2.6 | 0.00 | 0.02 | 0.02 | 70 | 1003.2 |
| 20260905192727 | 81 | 247 | 1.7 | 3.5 | 0.00 | 0.02 | 0.02 | 74 | 1003.3 |
| 20260905192224 | 80 | 153 | 3.5 | 5.2 | 0.00 | 0.02 | 0.02 | 72 | 1003.4 |
| 20260905191723 | 81 | 138 | 2.6 | 2.6 | 0.00 | 0.02 | 0.02 | 71 | 1003.6 |
| 20260905191221 | 82 | 210 | 0.0 | 7.8 | 0.00 | 0.02 | 0.02 | 71 | 1003.5 |
| 20260905190720 | 83 | 145 | 3.5 | 3.5 | 0.00 | 0.02 | 0.02 | 67 | 1003.7 |
| 20260905190219 | 82 | 103 | 0.9 | 2.6 | 0.00 | 0.02 | 0.02 | 73 | 1003.6 |
| 20260905185718 | 82 | 185 | 0.9 | 8.7 | 0.00 | 0.02 | 0.02 | 69 | 1003.7 |
| 20260905185213 | 82 | 269 | 3.5 | 3.5 | 0.00 | 0.02 | 0.02 | 71 | 1003.8 |
| 20260905184713 | 83 | 231 | 0.9 | 1.7 | 0.00 | 0.02 | 0.02 | 70 | 1003.9 |
| 20260905184212 | 82 | 244 | 0.9 | 0.9 | 0.00 | 0.02 | 0.02 | 71 | 1003.9 |
| 20260905183706 | 82 | 181 | 0.9 | 3.5 | 0.00 | 0.02 | 0.02 | 74 | 1004.2 |
| 20260905183201 | 80 | 202 | 1.7 | 3.5 | 0.00 | 0.02 | 0.02 | 77 | 1004.1 |
| 20260905182700 | 80 | 103 | 0.0 | 1.7 | 0.00 | 0.02 | 0.02 | 79 | 1004.2 |
| 20260905182155 | 79 | 307 | 0.0 | 2.6 | 0.00 | 0.02 | 0.02 | 81 | 1004.3 |
| 20260905181650 | 79 | 257 | 1.7 | 2.6 | 0.00 | 0.02 | 0.02 | 80 | 1004.7 |
| 20260905181149 | 78 | 248 | 2.6 | 3.5 | 0.00 | 0.02 | 0.02 | 82 | 1004.6 |
| 20260905180644 | 78 | 154 | 2.6 | 3.5 | 0.00 | 0.02 | 0.02 | 83 | 1004.9 |
| 20260905180139 | 78 | 113 | 0.0 | 2.6 | 0.00 | 0.02 | 0.02 | 84 | 1004.9 |
| 20260905175638 | 78 | 161 | 2.6 | 6.1 | 0.00 | 0.02 | 0.02 | 84 | 1004.9 |
| 20260905175134 | 79 | 227 | 1.7 | 7.8 | 0.00 | 0.02 | 0.02 | 80 | 1004.9 |
| 20260905174629 | 80 | 107 | 0.0 | 1.7 | 0.00 | 0.02 | 0.02 | 80 | 1004.9 |
| 20260905174125 | 79 | 243 | 0.0 | 1.7 | 0.00 | 0.02 | 0.02 | 80 | 1005.0 |
| 20260905173621 | 78 | 167 | 0.9 | 3.5 | 0.00 | 0.02 | 0.02 | 84 | 1005.0 |
| 20260905173116 | 78 | 134 | 1.7 | 1.7 | 0.00 | 0.02 | 0.02 | 83 | 1005.0 |
| 20260905172615 | 78 | 300 | 1.7 | 2.6 | 0.00 | 0.02 | 0.02 | 83 | 1004.8 |
| 20260905172110 | 77 | 118 | 0.9 | 6.1 | 0.00 | 0.02 | 0.02 | 84 | 1005.0 |
| 20260905171607 | 77 | 140 | 0.9 | 2.6 | 0.00 | 0.02 | 0.02 | 83 | 1005.2 |
| 20260905171102 | 76 | 338 | 0.9 | 5.2 | 0.00 | 0.02 | 0.02 | 83 | 1005.5 |
| 20260905170558 | 77 | 237 | 0.0 | 2.6 | 0.00 | 0.02 | 0.02 | 83 | 1005.4 |
| 20260905170054 | 77 | 40 | 0.0 | 3.5 | 0.00 | 0.02 | 0.02 | 84 | 1005.3 |
| 20260905165548 | 76 | 248 | 1.7 | 3.5 | 0.00 | 0.02 | 0.02 | 85 | 1004.8 |
| 20260905165044 | 76 | 229 | 1.7 | 3.5 | 0.00 | 0.02 | 0.02 | 85 | 1004.3 |
| 20260905164543 | 76 | 271 | 1.7 | 3.5 | 0.00 | 0.02 | 0.02 | 85 | 1004.2 |
| 20260905164038 | 75 | 157 | 1.7 | 2.6 | 0.00 | 0.02 | 0.02 | 88 | 1004.4 |
| 20260905163535 | 75 | 136 | 0.9 | 5.2 | 0.00 | 0.02 | 0.02 | 86 | 1004.3 |
| 20260905163031 | 75 | 243 | 1.7 | 5.2 | 0.00 | 0.02 | 0.02 | 86 | 1004.4 |
| 20260905162526 | 76 | 143 | 1.7 | 3.5 | 0.00 | 0.02 | 0.02 | 85 | 1004.3 |
| 20260905162020 | 76 | 150 | 2.6 | 3.5 | 0.00 | 0.02 | 0.02 | 85 | 1005.0 |
| 20260905161515 | 75 | 251 | 1.7 | 3.5 | 0.00 | 0.02 | 0.02 | 87 | 1005.1 |
| 20260905161012 | 74 | 273 | 0.0 | 2.6 | 0.00 | 0.02 | 0.02 | 88 | 1005.2 |
| 20260905160506 | 75 | 212 | 0.9 | 3.5 | 0.00 | 0.02 | 0.02 | 87 | 1005.3 |
| 20260905160005 | 74 | 290 | 1.7 | 1.7 | 0.00 | 0.02 | 0.02 | 88 | 1005.9 |
| 20260905155500 | 74 | 139 | 2.6 | 3.5 | 0.00 | 0.02 | 0.02 | 87 | 1006.0 |
| 20260905154958 | 75 | 198 | 1.7 | 3.5 | 0.00 | 0.02 | 0.02 | 88 | 1006.4 |
| 20260905154454 | 75 | 261 | 0.9 | 2.6 | 0.00 | 0.02 | 0.02 | 87 | 1006.5 |
| 20260905153949 | 74 | 152 | 1.7 | 6.1 | 0.00 | 0.02 | 0.02 | 89 | 1006.5 |
| 20260905153445 | 72 | 232 | 0.0 | 2.6 | 0.00 | 0.02 | 0.02 | 90 | 1006.5 |
| 20260905152940 | 71 | 163 | 0.9 | 2.6 | 0.00 | 0.02 | 0.02 | 93 | 1006.6 |
| 20260905152439 | 72 | 207 | 0.9 | 2.6 | 0.00 | 0.02 | 0.02 | 92 | 1006.7 |
| 20260905151934 | 71 | 80 | 0.0 | 1.7 | 0.00 | 0.02 | 0.02 | 94 | 1006.5 |
| 20260905151430 | 70 | 108 | 0.0 | 0.0 | 0.07 | 0.02 | 0.02 | 94 | 1006.5 |
| 20260905150925 | 70 | 99 | 0.0 | 1.7 | 0.07 | 0.02 | 0.02 | 96 | 1006.9 |
| 20260905150425 | 69 | 86 | 0.0 | 0.0 | 0.00 | 0.01 | 0.01 | 95 | 1006.7 |
| 20260905145921 | 69 | 14 | 0.0 | 0.0 | 0.00 | 0.01 | 0.01 | 96 | 1006.7 |
| 20260905145415 | 69 | 54 | 0.0 | 0.9 | 0.00 | 0.01 | 0.01 | 96 | 1006.8 |
| 20260905144910 | 69 | 107 | 0.0 | 0.9 | 0.00 | 0.01 | 0.01 | 96 | 1007.0 |
| 20260905144405 | 69 | 59 | 0.9 | 0.9 | 0.00 | 0.01 | 0.01 | 95 | 1006.8 |
| 20260905143904 | 69 | 102 | 0.0 | 0.9 | 0.00 | 0.01 | 0.01 | 96 | 1006.8 |
| 20260905143358 | 70 | 51 | 3.5 | 6.1 | 0.00 | 0.01 | 0.01 | 94 | 1006.9 |
| 20260905142857 | 71 | 99 | 3.5 | 7.0 | 0.00 | 0.01 | 0.01 | 94 | 1007.0 |
| 20260905142355 | 72 | 85 | 4.3 | 7.8 | 0.00 | 0.01 | 0.01 | 92 | 1007.1 |
| 20260905141852 | 72 | 113 | 2.6 | 2.6 | 0.00 | 0.01 | 0.01 | 93 | 1006.9 |
| 20260905141347 | 72 | 31 | 0.9 | 3.5 | 0.00 | 0.01 | 0.01 | 93 | 1007.1 |
| 20260905140843 | 73 | 225 | 1.7 | 1.7 | 0.00 | 0.01 | 0.01 | 96 | 1007.3 |
| 20260905140338 | 73 | 225 | 0.0 | 0.0 | 0.00 | 0.01 | 0.01 | 95 | 1006.1 |
| 20260905135836 | 74 | 225 | 0.9 | 0.9 | 0.00 | 0.01 | 0.01 | 94 | 1005.7 |
| 20260905135332 | 74 | 225 | 0.0 | 1.7 | 0.00 | 0.01 | 0.01 | 94 | 1005.7 |
| 20260905134827 | 74 | 225 | 0.0 | 0.9 | 0.00 | 0.01 | 0.01 | 94 | 1005.6 |
| 20260905134320 | 74 | 233 | 0.9 | 1.7 | 0.00 | 0.01 | 0.01 | 94 | 1005.6 |
| 20260905133815 | 74 | 250 | 0.0 | 0.9 | 0.00 | 0.01 | 0.01 | 94 | 1005.5 |
| 20260905133310 | 74 | 214 | 0.0 | 1.7 | 0.00 | 0.01 | 0.01 | 94 | 1005.5 |
| 20260905132809 | 74 | 232 | 0.9 | 1.7 | 0.00 | 0.01 | 0.01 | 93 | 1005.5 |
| 20260905132306 | 74 | 222 | 0.9 | 2.6 | 0.00 | 0.01 | 0.01 | 93 | 1005.4 |
| 20260905131759 | 74 | 265 | 0.0 | 2.6 | 0.00 | 0.01 | 0.01 | 93 | 1005.2 |
| 20260905131255 | 75 | 227 | 1.7 | 2.6 | 0.00 | 0.01 | 0.01 | 92 | 1005.3 |
| 20260905130749 | 75 | 238 | 0.9 | 3.5 | 0.00 | 0.01 | 0.01 | 93 | 1005.2 |
| 20260905130249 | 74 | 200 | 2.6 | 5.2 | 0.00 | 0.01 | 0.01 | 94 | 1005.4 |
| 20260905125744 | 73 | 226 | 0.9 | 0.9 | 0.00 | 0.01 | 0.01 | 96 | 1005.3 |
| 20260905125239 | 73 | 226 | 0.0 | 0.9 | 0.00 | 0.01 | 0.01 | 97 | 1005.4 |
| 20260905124736 | 72 | 226 | 0.9 | 1.7 | 0.00 | 0.01 | 0.01 | 96 | 1005.4 |
| 20260905124231 | 72 | 226 | 0.0 | 1.7 | 0.00 | 0.01 | 0.01 | 98 | 1005.4 |
| 20260905123726 | 71 | 226 | 0.9 | 1.7 | 0.00 | 0.01 | 0.01 | 99 | 1005.4 |
| 20260905123223 | 71 | 226 | 0.9 | 1.7 | 0.00 | 0.01 | 0.01 | 99 | 1005.3 |
| 20260905122723 | 70 | 226 | 1.7 | 1.7 | 0.00 | 0.01 | 0.01 | 99 | 1005.3 |
| 20260905122217 | 70 | 250 | 0.0 | 0.0 | 0.00 | 0.01 | 0.01 | 99 | 1005.5 |
| 20260905121712 | 69 | 250 | 0.0 | 0.0 | 0.00 | 0.01 | 0.01 | 99 | 1005.2 |
| 20260905121209 | 69 | 251 | 0.0 | 0.0 | 0.00 | 0.01 | 0.01 | 99 | 1005.3 |
| 20260905120707 | 69 | 251 | 0.0 | 0.9 | 0.00 | 0.01 | 0.01 | 99 | 1005.2 |
| 20260905120202 | 68 | 251 | 1.7 | 1.7 | 0.00 | 0.01 | 0.01 | 99 | 1005.3 |
| 20260905115702 | 67 | 298 | 1.7 | 1.7 | 0.00 | 0.01 | 0.01 | 99 | 1005.4 |
| 20260905115156 | 67 | 248 | 0.9 | 1.7 | 0.00 | 0.01 | 0.01 | 99 | 1005.2 |
| 20260905114656 | 66 | 254 | 1.7 | 1.7 | 0.00 | 0.01 | 0.01 | 99 | 1005.3 |
| 20260905114154 | 66 | 246 | 0.9 | 0.9 | 0.00 | 0.01 | 0.01 | 99 | 1005.4 |
| 20260905113649 | 65 | 243 | 0.0 | 0.0 | 0.00 | 0.01 | 0.01 | 99 | 1005.3 |
| 20260905113145 | 65 | 243 | 0.0 | 0.0 | 0.00 | 0.01 | 0.01 | 99 | 1005.4 |
| 20260905112644 | 65 | 243 | 0.0 | 0.0 | 0.00 | 0.01 | 0.01 | 99 | 1005.4 |
| 20260905112141 | 65 | 243 | 0.9 | 0.9 | 0.00 | 0.01 | 0.01 | 99 | 1005.2 |
| 20260905111640 | 65 | 252 | 0.9 | 0.9 | 0.00 | 0.01 | 0.01 | 99 | 1005.2 |